Regional Weather Roundup
Issued by NWS

Home | Current Version | Previous Version | Graphics & Text | Print | Product List | Glossary On
Versions: 1 2 3 4 5 6 7 8 9 10 11 12 13 14 15 16 17 18 19 20 21 22 23 24 25 26 27 28 29 30 31 32 33 34 35 36 37 38 39 40 41 42 43 44 45 46 47 48 49 50
000
ASUS43 KFSD 230810
RWRSD

WEATHER ROUNDUP FOR SOUTH DAKOTA
NATIONAL WEATHER SERVICE SIOUX FALLS SD
200 AM CST THU FEB 23 2017

NOTE: "FAIR" INDICATES FEW OR NO CLOUDS BELOW 12,000 FEET WITH NO
SIGNIFICANT WEATHER AND/OR OBSTRUCTIONS TO VISIBILITY.


SDZ001>005-009-010-012>017-230900-
NORTHWEST AND NORTH CENTRAL SOUTH DAKOTA

CITY           SKY/WX    TMP DP  RH WIND       PRES   REMARKS
BUFFALO          N/A     29  27  92 E10       29.87R WCI  20
FAITH            N/A     29  29 100 E12       29.94R WCI  19
MOBRIDGE       CLOUDY    32  25  75 NE6       29.95F WCI  26
$$

SDZ012>016-024>037-041>051-057-063-072>074-230900-
SOUTHWEST AND SOUTH CENTRAL SOUTH DAKOTA

CITY           SKY/WX    TMP DP  RH WIND       PRES   REMARKS
RAPID CTY ARPT CLOUDY    30  27  88 N7        29.89F WCI  23
PIERRE         CLOUDY    31  25  78 NE12      29.96R WCI  22
CUSTER         LGT SNOW  24  21  88 NE12      29.79S FOG     WCI  13
ELLSWORTH AFB  CLOUDY    30  28  93 NE7       29.89  WCI  23
PHILIP         CLOUDY    31  27  85 NE14      29.94R WCI  21
PINE RIDGE     LGT SNOW  31  30  96 NE7       29.86F FOG     WCI  24
SPEARFISH      CLOUDY    28  27  93 SE7       29.88F FOG     WCI  21
WINNER         CLOUDY    32  28  85 NE13      29.92S WCI  22
$$

SDZ004>011-016>023-039-040-230900-
NORTHEAST SOUTH DAKOTA

CITY           SKY/WX    TMP DP  RH WIND       PRES   REMARKS
ABERDEEN       PTCLDY    24  21  88 N7        29.98F WCI  16
WATERTOWN      CLEAR     26  23  88 N10       29.92S WCI  16
BROOKINGS      CLOUDY    30  25  81 N17G26    29.89F WCI  18
SISSETON         N/A     28  26  92 N12       29.96R WCI  18
$$

SDZ017-020-022-023-036>040-048>070-230900-
SOUTHEAST SOUTH DAKOTA

CITY           SKY/WX    TMP DP  RH WIND       PRES   REMARKS
SIOUX FALLS    CLOUDY    32  29  88 N20G28    29.87S WCI  20
HURON          CLOUDY    31  24  75 NE16      29.95F WCI  20
CHAMBERLAIN    CLOUDY    33  30  88 N13G20    29.92F WCI  24
MITCHELL       CLOUDY    33  28  81 N16       29.92F WCI  23
YANKTON        CLOUDY    34  28  80 N15G21    29.89R WCI  24
$$

ABBREVIATIONS USED IN REMARKS
   TC - TEMPERATURE IN CELSIUS
  WCI - WIND CHILL INDEX
   HX - HEAT INDEX
  VSB - VISIBILITY





USA.gov is the U.S. government's official web portal to all federal, state and local government web resources and services.